グリグ-シェレルップ彗星

26P/Grigg-Skjellerup (2023)

English version
Home page
Updated on December 28, 2022

---------------------------------------------------------------------

・ プロフィール

・ 軌道要素

Epoch 2023 Feb. 25.0 TT = JDT 2460000.5
T 2023 Dec. 25.36962 TT                                 Rudenko
q   1.0840304            (2000.0)            P               Q
n   0.18823472     Peri.    2.14919     -0.83353798     +0.51513880
a   3.0153396      Node   211.54055     -0.51239647     -0.85594928
e   0.6404947      Incl.   22.43284     -0.20655335     +0.04452911
P   5.24
>From 695 observations 1966 Dec. 19-2022 Dec. 15, mean residual 0".8.
     Nongravitational parameters A1 = +0.01, A2 = -0.0010.

・ 星図

・ 光度変化

        H = 16.5  G = 0.15                        [   ,-80]  (              〜2023年10月 6日)
        m1 = 16.2 + 5 logΔ + 10.0 log r(t - 20)  [-80,-25]  (2023年10月 6日〜2023年11月30日)
        m1 = 8.0 + 5 logΔ + 100 log r(t - 20)    [-25, 65]  (2023年11月30日〜2024年 2月28日)
        m1 = 16.2 + 5 logΔ + 10.0 log r(t - 20)  [ 65,180]  (2024年 2月28日〜2024年 6月22日)
        H = 16.5  G = 0.15                        [180,   ]  (2024年 6月22日〜              )

---------------------------------------------------------------------

軌道要素はM.P.E.C. 2022-Y15に掲載されたものです。
星図はステラナビゲータ Ver.10 (アストロアーツ) で作成したものです。
光度グラフはComet for Windowsで作成したものです。

---------------------------------------------------------------------

Copyright(C) Seiichi Yoshida (comet@aerith.net). All rights reserved.